Language selection

Features

My Weather Profile Weather Topics  | 

Eastern Lake Superior: Past 24 Hour Conditions

 

Welcome Island

03:00 PM EDT 21 October 2019
Disclaimer

This table is a summary of hourly weather conditions for the past 24 hours.
Please note that these observations might not always be representative of weather conditions over their associated marine area.

Date / Time
(EDT)
Wind(knots) Conditions Visibility(km) Pressure(kPa) Air tempC) Relative humidity(%) Dew pointC)
21 October 2019
15:00 ENE 28 gust 35 N/A N/A 100.5 10 85 7
14:00 ENE 24 gust 29 N/A N/A 100.8 10 86 7
13:00 E 22 gust 29 N/A N/A 101.0 9 92 8
12:00 E 22 N/A N/A 101.1 9 96 8
11:00 E 20 N/A N/A 101.2 8 91 7
10:00 E 19 N/A N/A 101.2 8 92 7
9:00 E 19 N/A N/A 101.2 8 94 7
8:00 E 19 N/A N/A 101.3 8 94 7
7:00 E 19 N/A N/A 101.3 7 94 6
6:00 ENE 12 N/A N/A 101.4 7 94 7
5:00 ENE 10 gust 15 N/A N/A 101.4 7 96 6
4:00 ENE 11 N/A N/A 101.5 7 96 6
3:00 ENE 10 N/A N/A 101.5 7 96 7
2:00 SE 3 N/A N/A 101.5 7 99 7
1:00 E 9 N/A N/A 101.5 7 98 7
0:00 NE 9 N/A N/A 101.5 7 99 7
20 October 2019
23:00 ENE 8 N/A N/A 101.5 8 98 7
22:00 ENE 2 N/A N/A 101.5 8 97 8
21:00 ESE 7 N/A N/A 101.4 8 98 8
20:00 SE 7 N/A N/A 101.4 8 99 8
19:00 SE 9 N/A N/A 101.4 8 94 7
18:00 SE 8 N/A N/A 101.3 8 94 8
17:00 SE 8 N/A N/A 101.3 9 90 8
16:00 SSE 10 N/A N/A 101.2 10 86 8
15:00 SE 6 N/A N/A 101.1 11 82 8

Zoom-in to make a selection

Map of Great Lakes - Lake Superior marine weather areas Mid Superior - 45001 East Superior - 45004 West Superior - 45006 Slate Island - 45136 Lake Of the Woods - 45148 Kenora Airport Royal Island Armstrong Airport Caribou Island Marathon Airport Pukaskwa National Park Thunder Bay Airport Welcome Island Little Flatland Island Sault Ste. Marie Airport Wawa Airport
Legend:
buoy Buoy
land station Land Station

Great Lakes - Lake Superior Area

Another Region

What we are doing

Date modified: